STARLINK-3230 (50845 NORAD) Tracking and Keplerian Element Data

This shows tracking and keplerian element data for the satellite.

Feedback or suggestion? Click here.




ElementValue
Catalog50845
NameSTARLINK-3230
Epoch Orbit375
Epoch Day22.91667824
Epoch Year2022
RAAN119.7559
Inclination53.2175
Eccentricity0.0001203
Argument of Perigee53.002
Mean Anonmoly264.2343
Mean Motion15.75318992
Decay Rate-0.00821536
L11 50845U 22001AU 22022.91667824 -.00821536 00000+0 -58767-2 0 9999
L22 50845 53.2175 119.7559 0001203 53.0020 264.2343 15.75318992 3759

Live tracking and technical data element details for STARLINK-3230 (NORAD 50845). STARLINK-3230 can be tracked NOW for your location showing map with azimuth and elevation plus other details from your city location.

Track the satellite on the map from your city or location and see movement details for azimuth, elevation, latitude, longitude, range, height, and movement on the map or in text.







IsCatalogInMostPopularTable: catalog: 50845, numindb: 3
Update: records affected: 1



GetName: 50845 STARLINK-3230

Hit Count: updated at: Mon, 24 Jan 2022 00:08:03 GMT